Location: ?????????
(53.2086°N, 54.0693°E)
Time: 14:14:34
(UTC+00:00)

Cosmos 1092 Rocket - Pass Details

Date: 08 December 2019
Orbit: 953 x 996 km, 83.0° (Epoch: 19 January)

Event Time Altitude Azimuth Distance (km) Brightness Sun altitude
Rises 14:21:04 0° 178° (S) 3,696 7.2 -18.8°
Reaches altitude 10° 14:23:35 10° 176° (S) 2,747 6.5 -19.2°
Maximum altitude 14:29:50 68° 95° (E) 1,059 3.9 -20.1°
Drops below altitude 10° 14:36:04 10° 14° (NNE) 2,739 6.1 -21.0°
Sets 14:38:35 0° 12° (NNE) 3,684 6.8 -21.4°
